Year,Month,Day,Hour,Minute,Value (Times are PST for temperature in C)
2015,06,21,00,00,12.10
2015,06,21,00,01,12.10
2015,06,21,00,02,12.10
2015,06,21,00,03,12.10
2015,06,21,00,04,12.10
2015,06,21,00,05,12.00
2015,06,21,00,06,12.00
2015,06,21,00,07,12.00
2015,06,21,00,08,12.00
2015,06,21,00,09,12.00
2015,06,21,00,10,12.00
2015,06,21,00,11,12.00
2015,06,21,00,12,12.00
2015,06,21,00,13,12.00
2015,06,21,00,14,12.00
2015,06,21,00,15,12.00
2015,06,21,00,16,12.00
2015,06,21,00,17,12.00
2015,06,21,00,18,12.00
2015,06,21,00,19,12.00
2015,06,21,00,20,12.00
2015,06,21,00,21,11.90
2015,06,21,00,22,11.90
2015,06,21,00,23,11.90
2015,06,21,00,24,11.90
2015,06,21,00,25,11.90
2015,06,21,00,26,11.90
2015,06,21,00,27,11.90
2015,06,21,00,28,11.90
2015,06,21,00,29,11.90
2015,06,21,00,30,11.90
2015,06,21,00,31,11.90
2015,06,21,00,32,11.90
2015,06,21,00,33,11.90
2015,06,21,00,34,11.80
2015,06,21,00,35,11.80
2015,06,21,00,36,11.80
2015,06,21,00,37,11.80
2015,06,21,00,38,11.80
2015,06,21,00,39,11.80
2015,06,21,00,40,11.70
2015,06,21,00,41,11.70
2015,06,21,00,42,11.70
2015,06,21,00,43,11.70
2015,06,21,00,44,11.70
2015,06,21,00,45,11.70
2015,06,21,00,46,11.70
2015,06,21,00,47,11.70
2015,06,21,00,48,11.70
2015,06,21,00,49,11.70
2015,06,21,00,50,11.70
2015,06,21,00,51,11.70
2015,06,21,00,52,11.70
2015,06,21,00,53,11.70
2015,06,21,00,54,11.70
2015,06,21,00,55,11.70
2015,06,21,00,56,11.70
2015,06,21,00,57,11.70
2015,06,21,00,58,11.60
2015,06,21,00,59,11.60
2015,06,21,01,00,11.60
2015,06,21,01,01,11.60
2015,06,21,01,02,11.60
2015,06,21,01,03,11.60
2015,06,21,01,04,11.60
2015,06,21,01,05,11.60
2015,06,21,01,06,11.50
2015,06,21,01,07,11.50
2015,06,21,01,08,11.50
2015,06,21,01,09,11.50
2015,06,21,01,10,11.40
2015,06,21,01,11,11.40
2015,06,21,01,12,11.40
2015,06,21,01,13,11.40
2015,06,21,01,14,11.40
2015,06,21,01,15,11.40
2015,06,21,01,16,11.40
2015,06,21,01,17,11.40
2015,06,21,01,18,11.40
2015,06,21,01,19,11.40
2015,06,21,01,20,11.30
2015,06,21,01,21,11.30
2015,06,21,01,22,11.30
2015,06,21,01,23,11.30
2015,06,21,01,24,11.30
2015,06,21,01,25,11.30
2015,06,21,01,26,11.30
2015,06,21,01,27,11.30
2015,06,21,01,28,11.30
2015,06,21,01,29,11.30
2015,06,21,01,30,11.30
2015,06,21,01,31,11.30
2015,06,21,01,32,11.30
2015,06,21,01,33,11.30
2015,06,21,01,34,11.20
2015,06,21,01,35,11.20
2015,06,21,01,36,11.20
2015,06,21,01,37,11.20
2015,06,21,01,38,11.20
2015,06,21,01,39,11.20
2015,06,21,01,40,11.20
2015,06,21,01,41,11.20
2015,06,21,01,42,11.20
2015,06,21,01,43,11.20
2015,06,21,01,44,11.20
2015,06,21,01,45,11.20
2015,06,21,01,46,11.20
2015,06,21,01,47,11.10
2015,06,21,01,48,11.10
2015,06,21,01,49,11.10
2015,06,21,01,50,11.10
2015,06,21,01,51,11.10
2015,06,21,01,52,11.10
2015,06,21,01,53,11.10
2015,06,21,01,54,11.10
2015,06,21,01,55,11.10
2015,06,21,01,56,11.10
2015,06,21,01,57,11.10
2015,06,21,01,58,11.00
2015,06,21,01,59,11.00
2015,06,21,02,00,11.00
2015,06,21,02,01,11.00
2015,06,21,02,02,11.00
2015,06,21,02,03,10.90
2015,06,21,02,04,10.90
2015,06,21,02,05,10.90
2015,06,21,02,06,10.90
2015,06,21,02,07,10.90
2015,06,21,02,08,10.90
2015,06,21,02,09,10.80
2015,06,21,02,10,10.80
2015,06,21,02,11,10.80
2015,06,21,02,12,10.80
2015,06,21,02,13,10.80
2015,06,21,02,14,10.80
2015,06,21,02,15,10.80
2015,06,21,02,16,10.80
2015,06,21,02,17,10.80
2015,06,21,02,18,10.80
2015,06,21,02,19,10.80
2015,06,21,02,20,10.80
2015,06,21,02,21,10.80
2015,06,21,02,22,10.70
2015,06,21,02,23,10.70
2015,06,21,02,24,10.70
2015,06,21,02,25,10.70
2015,06,21,02,26,10.70
2015,06,21,02,27,10.70
2015,06,21,02,28,10.70
2015,06,21,02,29,10.70
2015,06,21,02,30,10.70
2015,06,21,02,31,10.70
2015,06,21,02,32,10.60
2015,06,21,02,33,10.60
2015,06,21,02,34,10.60
2015,06,21,02,35,10.60
2015,06,21,02,36,10.60
2015,06,21,02,37,10.60
2015,06,21,02,38,10.50
2015,06,21,02,39,10.50
2015,06,21,02,40,10.50
2015,06,21,02,41,10.50
2015,06,21,02,42,10.40
2015,06,21,02,43,10.40
2015,06,21,02,44,10.40
2015,06,21,02,45,10.40
2015,06,21,02,46,10.40
2015,06,21,02,47,10.40
2015,06,21,02,48,10.40
2015,06,21,02,49,10.40
2015,06,21,02,50,10.40
2015,06,21,02,51,10.30
2015,06,21,02,52,10.30
2015,06,21,02,53,10.30
2015,06,21,02,54,10.30
2015,06,21,02,55,10.30
2015,06,21,02,56,10.30
2015,06,21,02,57,10.30
2015,06,21,02,58,10.30
2015,06,21,02,59,10.30
2015,06,21,03,00,10.30
2015,06,21,03,01,10.30
2015,06,21,03,02,10.30
2015,06,21,03,03,10.20
2015,06,21,03,04,10.20
2015,06,21,03,05,10.20
2015,06,21,03,06,10.20
2015,06,21,03,07,10.20
2015,06,21,03,08,10.20
2015,06,21,03,09,10.20
2015,06,21,03,10,10.20
2015,06,21,03,11,10.20
2015,06,21,03,12,10.20
2015,06,21,03,13,10.20
2015,06,21,03,14,10.20
2015,06,21,03,15,10.10
2015,06,21,03,16,10.20
2015,06,21,03,17,10.10
2015,06,21,03,18,10.10
2015,06,21,03,19,10.10
2015,06,21,03,20,10.10
2015,06,21,03,21,10.10
2015,06,21,03,22,10.10
2015,06,21,03,23,10.10
2015,06,21,03,24,10.10
2015,06,21,03,25,10.10
2015,06,21,03,26,10.10
2015,06,21,03,27,10.00
2015,06,21,03,28,10.00
2015,06,21,03,29,10.00
2015,06,21,03,30,10.00
2015,06,21,03,31,10.00
2015,06,21,03,32,10.00
2015,06,21,03,33,10.00
2015,06,21,03,34,9.90
2015,06,21,03,35,9.90
2015,06,21,03,36,9.90
2015,06,21,03,37,9.90
2015,06,21,03,38,9.90
2015,06,21,03,39,9.90
2015,06,21,03,40,9.90
2015,06,21,03,41,9.90
2015,06,21,03,42,9.90
2015,06,21,03,43,9.90
2015,06,21,03,44,9.90
2015,06,21,03,45,9.90
2015,06,21,03,49,9.90
2015,06,21,03,50,9.90
2015,06,21,03,51,9.90
2015,06,21,03,52,9.90
2015,06,21,03,53,9.80
2015,06,21,03,54,9.80
2015,06,21,03,55,9.80
2015,06,21,03,56,9.80
2015,06,21,03,57,9.80
2015,06,21,03,58,9.80
2015,06,21,03,59,9.80
2015,06,21,04,00,9.80
2015,06,21,04,01,9.80
2015,06,21,04,02,9.80
2015,06,21,04,03,9.80
2015,06,21,04,04,9.70
2015,06,21,04,05,9.70
2015,06,21,04,06,9.70
2015,06,21,04,07,9.70
2015,06,21,04,08,9.70
2015,06,21,04,09,9.70
2015,06,21,04,10,9.70
2015,06,21,04,11,9.70
2015,06,21,04,12,9.60
2015,06,21,04,13,9.60
2015,06,21,04,14,9.60
2015,06,21,04,15,9.60
2015,06,21,04,16,9.60
2015,06,21,04,17,9.60
2015,06,21,04,18,9.50
2015,06,21,04,19,9.50
2015,06,21,04,20,9.50
2015,06,21,04,21,9.50
2015,06,21,04,22,9.40
2015,06,21,04,23,9.40
2015,06,21,04,24,9.40
2015,06,21,04,25,9.40
2015,06,21,04,26,9.40
2015,06,21,04,27,9.40
2015,06,21,04,28,9.30
2015,06,21,04,29,9.30
2015,06,21,04,30,9.30
2015,06,21,04,31,9.30
2015,06,21,04,32,9.30
2015,06,21,04,33,9.30
2015,06,21,04,34,9.30
2015,06,21,04,35,9.30
2015,06,21,04,36,9.30
2015,06,21,04,37,9.30
2015,06,21,04,38,9.30
2015,06,21,04,39,9.30
2015,06,21,04,40,9.30
2015,06,21,04,41,9.30
2015,06,21,04,42,9.30
2015,06,21,04,43,9.30
2015,06,21,04,44,9.30
2015,06,21,04,45,9.30
2015,06,21,04,46,9.30
2015,06,21,04,47,9.30
2015,06,21,04,48,9.30
2015,06,21,04,49,9.30
2015,06,21,04,50,9.30
2015,06,21,04,51,9.30
2015,06,21,04,52,9.30
2015,06,21,04,53,9.30
2015,06,21,04,54,9.30
2015,06,21,04,55,9.30
2015,06,21,04,56,9.30
2015,06,21,04,57,9.30
2015,06,21,04,58,9.20
2015,06,21,04,59,9.20
2015,06,21,05,00,9.20
2015,06,21,05,01,9.20
2015,06,21,05,02,9.20
2015,06,21,05,03,9.20
2015,06,21,05,04,9.20
2015,06,21,05,05,9.20
2015,06,21,05,06,9.20
2015,06,21,05,07,9.20
2015,06,21,05,08,9.20
2015,06,21,05,09,9.20
2015,06,21,05,10,9.20
2015,06,21,05,11,9.20
2015,06,21,05,12,9.20
2015,06,21,05,13,9.20
2015,06,21,05,14,9.20
2015,06,21,05,15,9.20
2015,06,21,05,16,9.20
2015,06,21,05,17,9.20
2015,06,21,05,18,9.20
2015,06,21,05,19,9.20
2015,06,21,05,20,9.20
2015,06,21,05,21,9.20
2015,06,21,05,22,9.20
2015,06,21,05,23,9.20
2015,06,21,05,24,9.20
2015,06,21,05,25,9.20
2015,06,21,05,26,9.20
2015,06,21,05,27,9.20
2015,06,21,05,28,9.20
2015,06,21,05,29,9.20
2015,06,21,05,30,9.20
2015,06,21,05,31,9.20
2015,06,21,05,32,9.20
2015,06,21,05,33,9.10
2015,06,21,05,34,9.10
2015,06,21,05,35,9.10
2015,06,21,05,36,9.10
2015,06,21,05,37,9.10
2015,06,21,05,38,9.10
2015,06,21,05,39,9.10
2015,06,21,05,40,9.10
2015,06,21,05,41,9.10
2015,06,21,05,42,9.10
2015,06,21,05,43,9.10
2015,06,21,05,44,9.10
2015,06,21,05,45,9.10
2015,06,21,05,46,9.20
2015,06,21,05,47,9.20
2015,06,21,05,48,9.20
2015,06,21,05,49,9.20
2015,06,21,05,50,9.20
2015,06,21,05,51,9.20
2015,06,21,05,52,9.20
2015,06,21,05,53,9.20
2015,06,21,05,54,9.20
2015,06,21,05,55,9.20
2015,06,21,05,56,9.20
2015,06,21,05,57,9.30
2015,06,21,05,58,9.30
2015,06,21,05,59,9.30
2015,06,21,06,00,9.30
2015,06,21,06,01,9.40
2015,06,21,06,02,9.40
2015,06,21,06,03,9.40
2015,06,21,06,04,9.50
2015,06,21,06,05,9.50
2015,06,21,06,06,9.60
2015,06,21,06,07,9.60
2015,06,21,06,08,9.70
2015,06,21,06,09,9.70
2015,06,21,06,10,9.80
2015,06,21,06,11,9.80
2015,06,21,06,12,9.90
2015,06,21,06,13,9.90
2015,06,21,06,14,10.00
2015,06,21,06,15,10.10
2015,06,21,06,16,10.10
2015,06,21,06,17,10.20
2015,06,21,06,18,10.20
2015,06,21,06,19,10.30
2015,06,21,06,20,10.30
2015,06,21,06,21,10.40
2015,06,21,06,22,10.40
2015,06,21,06,23,10.50
2015,06,21,06,24,10.50
2015,06,21,06,25,10.60
2015,06,21,06,26,10.70
2015,06,21,06,27,10.70
2015,06,21,06,28,10.80
2015,06,21,06,29,10.80
2015,06,21,06,30,10.90
2015,06,21,06,31,10.90
2015,06,21,06,32,11.00
2015,06,21,06,33,11.10
2015,06,21,06,34,11.10
2015,06,21,06,35,11.20
2015,06,21,06,36,11.30
2015,06,21,06,37,11.30
2015,06,21,06,38,11.40
2015,06,21,06,39,11.50
2015,06,21,06,40,11.60
2015,06,21,06,41,11.60
2015,06,21,06,42,11.70
2015,06,21,06,43,11.80
2015,06,21,06,44,11.80
2015,06,21,06,45,11.90
2015,06,21,06,46,11.90
2015,06,21,06,47,12.00
2015,06,21,06,48,12.10
2015,06,21,06,49,12.10
2015,06,21,06,50,12.20
2015,06,21,06,51,12.30
2015,06,21,06,52,12.30
2015,06,21,06,53,12.40
2015,06,21,06,54,12.50
2015,06,21,06,55,12.60
2015,06,21,06,56,12.60
2015,06,21,06,57,12.70
2015,06,21,06,58,12.80
2015,06,21,06,59,12.80
2015,06,21,07,00,12.90
2015,06,21,07,01,12.90
2015,06,21,07,02,12.90
2015,06,21,07,03,13.00
2015,06,21,07,04,13.00
2015,06,21,07,05,13.00
2015,06,21,07,06,13.00
2015,06,21,07,07,13.00
2015,06,21,07,08,13.10
2015,06,21,07,09,13.10
2015,06,21,07,10,13.20
2015,06,21,07,11,13.20
2015,06,21,07,12,13.20
2015,06,21,07,13,13.30
2015,06,21,07,14,13.30
2015,06,21,07,15,13.30
2015,06,21,07,16,13.40
2015,06,21,07,17,13.40
2015,06,21,07,18,13.40
2015,06,21,07,19,13.50
2015,06,21,07,20,13.50
2015,06,21,07,21,13.60
2015,06,21,07,22,13.70
2015,06,21,07,23,13.70
2015,06,21,07,24,13.80
2015,06,21,07,25,13.90
2015,06,21,07,26,14.00
2015,06,21,07,27,14.10
2015,06,21,07,28,14.20
2015,06,21,07,29,14.20
2015,06,21,07,30,14.30
2015,06,21,07,31,14.40
2015,06,21,07,32,14.50
2015,06,21,07,33,14.60
2015,06,21,07,34,14.70
2015,06,21,07,35,14.80
2015,06,21,07,36,14.90
2015,06,21,07,37,15.00
2015,06,21,07,38,15.00
2015,06,21,07,39,15.10
2015,06,21,07,40,15.20
2015,06,21,07,41,15.30
2015,06,21,07,42,15.40
2015,06,21,07,43,15.50
2015,06,21,07,44,15.60
2015,06,21,07,45,15.70
2015,06,21,07,46,15.80
2015,06,21,07,47,15.80
2015,06,21,07,48,16.00
2015,06,21,07,49,16.10
2015,06,21,07,50,16.10
2015,06,21,07,51,16.20
2015,06,21,07,52,16.30
2015,06,21,07,53,16.40
2015,06,21,07,54,16.40
2015,06,21,07,55,16.50
2015,06,21,07,56,16.60
2015,06,21,07,57,16.70
2015,06,21,07,58,16.80
2015,06,21,07,59,16.80
2015,06,21,08,00,16.80
2015,06,21,08,01,16.80
2015,06,21,08,02,16.90
2015,06,21,08,03,16.90
2015,06,21,08,04,16.90
2015,06,21,08,05,16.90
2015,06,21,08,06,16.80
2015,06,21,08,07,16.80
2015,06,21,08,08,16.80
2015,06,21,08,09,16.80
2015,06,21,08,10,16.80
2015,06,21,08,11,16.80
2015,06,21,08,12,16.80
2015,06,21,08,13,16.80
2015,06,21,08,14,16.70
2015,06,21,08,15,16.70
2015,06,21,08,16,16.70
2015,06,21,08,17,16.70
2015,06,21,08,18,16.70
2015,06,21,08,19,16.70
2015,06,21,08,20,16.80
2015,06,21,08,21,16.80
2015,06,21,08,22,16.90
2015,06,21,08,23,17.00
2015,06,21,08,24,17.00
2015,06,21,08,25,17.10
2015,06,21,08,26,17.20
2015,06,21,08,27,17.20
2015,06,21,08,28,17.20
2015,06,21,08,29,17.30
2015,06,21,08,30,17.40
2015,06,21,08,31,17.40
2015,06,21,08,32,17.50
2015,06,21,08,33,17.50
2015,06,21,08,34,17.60
2015,06,21,08,35,17.60
2015,06,21,08,36,17.60
2015,06,21,08,37,17.70
2015,06,21,08,38,17.80
2015,06,21,08,39,17.90
2015,06,21,08,40,17.90
2015,06,21,08,41,18.00
2015,06,21,08,42,18.10
2015,06,21,08,43,18.10
2015,06,21,08,44,18.20
2015,06,21,08,45,18.30
2015,06,21,08,46,18.40
2015,06,21,08,47,18.50
2015,06,21,08,48,18.60
2015,06,21,08,49,18.70
2015,06,21,08,50,18.70
2015,06,21,08,51,18.70
2015,06,21,08,52,18.70
2015,06,21,08,53,18.70
2015,06,21,08,54,18.70
2015,06,21,08,55,18.60
2015,06,21,08,56,18.60
2015,06,21,08,57,18.70
2015,06,21,08,58,18.70
2015,06,21,08,59,18.70
2015,06,21,09,00,18.70
2015,06,21,09,01,18.70
2015,06,21,09,02,18.60
2015,06,21,09,03,18.60
2015,06,21,09,04,18.60
2015,06,21,09,05,18.60
2015,06,21,09,06,18.60
2015,06,21,09,07,18.60
2015,06,21,09,08,18.60
2015,06,21,09,09,18.60
2015,06,21,09,10,18.60
2015,06,21,09,11,18.60
2015,06,21,09,12,18.70
2015,06,21,09,13,18.70
2015,06,21,09,14,18.70
2015,06,21,09,15,18.70
2015,06,21,09,16,18.80
2015,06,21,09,17,18.80
2015,06,21,09,18,18.90
2015,06,21,09,19,19.00
2015,06,21,09,20,19.10
2015,06,21,09,21,19.20
2015,06,21,09,22,19.30
2015,06,21,09,23,19.30
2015,06,21,09,24,19.40
2015,06,21,09,25,19.50
2015,06,21,09,26,19.60
2015,06,21,09,27,19.70
2015,06,21,09,28,19.70
2015,06,21,09,29,19.80
2015,06,21,09,30,20.00
2015,06,21,09,31,20.00
2015,06,21,09,32,20.10
2015,06,21,09,33,20.20
2015,06,21,09,34,20.20
2015,06,21,09,35,20.10
2015,06,21,09,36,20.00
2015,06,21,09,37,19.90
2015,06,21,09,38,19.90
2015,06,21,09,39,19.80
2015,06,21,09,40,19.80
2015,06,21,09,41,19.80
2015,06,21,09,42,19.80
2015,06,21,09,43,19.80
2015,06,21,09,44,19.70
2015,06,21,09,45,19.70
2015,06,21,09,46,19.60
2015,06,21,09,47,19.60
2015,06,21,09,48,19.70
2015,06,21,09,49,19.70
2015,06,21,09,50,19.70
2015,06,21,09,51,19.60
2015,06,21,09,52,19.60
2015,06,21,09,53,19.70
2015,06,21,09,54,19.70
2015,06,21,09,55,19.80
2015,06,21,09,56,19.80
2015,06,21,09,57,19.90
2015,06,21,09,58,20.00
2015,06,21,09,59,20.00
2015,06,21,10,00,20.10
2015,06,21,10,01,20.10
2015,06,21,10,02,20.10
2015,06,21,10,03,20.10
2015,06,21,10,04,20.10
2015,06,21,10,05,20.20
2015,06,21,10,06,20.20
2015,06,21,10,07,20.20
2015,06,21,10,08,20.30
2015,06,21,10,09,20.30
2015,06,21,10,10,20.30
2015,06,21,10,11,20.40
2015,06,21,10,12,20.40
2015,06,21,10,13,20.50
2015,06,21,10,14,20.60
2015,06,21,10,15,20.70
2015,06,21,10,16,20.80
2015,06,21,10,17,20.90
2015,06,21,10,18,21.00
2015,06,21,10,19,21.10
2015,06,21,10,20,21.20
2015,06,21,10,21,21.20
2015,06,21,10,22,21.20
2015,06,21,10,23,21.20
2015,06,21,10,24,21.10
2015,06,21,10,25,21.10
2015,06,21,10,26,21.10
2015,06,21,10,27,21.10
2015,06,21,10,28,21.10
2015,06,21,10,29,21.00
2015,06,21,10,30,21.00
2015,06,21,10,31,21.00
2015,06,21,10,32,21.00
2015,06,21,10,33,21.10
2015,06,21,10,34,21.10
2015,06,21,10,35,21.20
2015,06,21,10,36,21.20
2015,06,21,10,37,21.30
2015,06,21,10,38,21.30
2015,06,21,10,39,21.20
2015,06,21,10,40,21.20
2015,06,21,10,41,21.20
2015,06,21,10,42,21.20
2015,06,21,10,43,21.20
2015,06,21,10,44,21.20
2015,06,21,10,45,21.20
2015,06,21,10,46,21.20
2015,06,21,10,47,21.30
2015,06,21,10,48,21.30
2015,06,21,10,49,21.40
2015,06,21,10,50,21.40
2015,06,21,10,51,21.40
2015,06,21,10,52,21.40
2015,06,21,10,53,21.40
2015,06,21,10,54,21.50
2015,06,21,10,55,21.50
2015,06,21,10,56,21.50
2015,06,21,10,57,21.50
2015,06,21,10,58,21.50
2015,06,21,10,59,21.50
2015,06,21,11,00,21.50
2015,06,21,11,01,21.60
2015,06,21,11,02,21.70
2015,06,21,11,03,21.70
2015,06,21,11,04,21.60
2015,06,21,11,05,21.50
2015,06,21,11,06,21.50
2015,06,21,11,07,21.40
2015,06,21,11,08,21.40
2015,06,21,11,09,21.50
2015,06,21,11,10,21.60
2015,06,21,11,11,21.60
2015,06,21,11,12,21.70
2015,06,21,11,13,21.80
2015,06,21,11,14,21.80
2015,06,21,11,15,21.90
2015,06,21,11,16,22.00
2015,06,21,11,17,22.10
2015,06,21,11,18,22.10
2015,06,21,11,19,22.10
2015,06,21,11,20,22.10
2015,06,21,11,21,22.10
2015,06,21,11,22,22.10
2015,06,21,11,23,22.10
2015,06,21,11,24,22.10
2015,06,21,11,25,22.00
2015,06,21,11,26,21.90
2015,06,21,11,27,21.90
2015,06,21,11,28,21.90
2015,06,21,11,29,21.90
2015,06,21,11,30,21.90
2015,06,21,11,31,22.00
2015,06,21,11,32,22.00
2015,06,21,11,33,22.10
2015,06,21,11,34,22.20
2015,06,21,11,35,22.20
2015,06,21,11,36,22.20
2015,06,21,11,37,22.20
2015,06,21,11,38,22.20
2015,06,21,11,39,22.10
2015,06,21,11,40,22.10
2015,06,21,11,41,22.20
2015,06,21,11,42,22.30
2015,06,21,11,43,22.30
2015,06,21,11,44,22.30
2015,06,21,11,45,22.40
2015,06,21,11,46,22.40
2015,06,21,11,47,22.30
2015,06,21,11,48,22.20
2015,06,21,11,49,22.20
2015,06,21,11,50,22.30
2015,06,21,11,51,22.30
2015,06,21,11,52,22.40
2015,06,21,11,53,22.40
2015,06,21,11,54,22.50
2015,06,21,11,55,22.60
2015,06,21,11,56,22.60
2015,06,21,11,57,22.60
2015,06,21,11,58,22.60
2015,06,21,11,59,22.70
2015,06,21,12,00,22.80
2015,06,21,12,01,22.90
2015,06,21,12,02,22.90
2015,06,21,12,03,23.00
2015,06,21,12,04,23.00
2015,06,21,12,05,23.10
2015,06,21,12,06,23.20
2015,06,21,12,07,23.20
2015,06,21,12,08,23.20
2015,06,21,12,09,23.30
2015,06,21,12,10,23.40
2015,06,21,12,11,23.60
2015,06,21,12,12,23.70
2015,06,21,12,13,23.90
2015,06,21,12,14,24.00
2015,06,21,12,15,24.00
2015,06,21,12,16,24.10
2015,06,21,12,17,24.00
2015,06,21,12,18,24.00
2015,06,21,12,19,23.90
2015,06,21,12,20,23.90
2015,06,21,12,21,23.80
2015,06,21,12,22,23.80
2015,06,21,12,23,23.80
2015,06,21,12,24,23.90
2015,06,21,12,25,23.90
2015,06,21,12,26,23.90
2015,06,21,12,27,23.90
2015,06,21,12,28,23.90
2015,06,21,12,29,23.80
2015,06,21,12,30,23.70
2015,06,21,12,31,23.60
2015,06,21,12,32,23.50
2015,06,21,12,33,23.60
2015,06,21,12,34,23.60
2015,06,21,12,35,23.70
2015,06,21,12,36,23.80
2015,06,21,12,37,23.70
2015,06,21,12,38,23.60
2015,06,21,12,39,23.50
2015,06,21,12,40,23.40
2015,06,21,12,41,23.40
2015,06,21,12,42,23.20
2015,06,21,12,43,23.10
2015,06,21,12,44,23.00
2015,06,21,12,45,22.90
2015,06,21,12,46,22.80
2015,06,21,12,47,22.80
2015,06,21,12,48,22.80
2015,06,21,12,49,22.90
2015,06,21,12,50,22.90
2015,06,21,12,51,23.00
2015,06,21,12,52,23.10
2015,06,21,12,53,23.10
2015,06,21,12,54,23.20
2015,06,21,12,55,23.30
2015,06,21,12,56,23.40
2015,06,21,12,57,23.40
2015,06,21,12,58,23.50
2015,06,21,12,59,23.60
2015,06,21,13,00,23.70
2015,06,21,13,01,23.70
2015,06,21,13,02,23.80
2015,06,21,13,03,23.90
2015,06,21,13,04,24.00
2015,06,21,13,05,24.00
2015,06,21,13,06,23.90
2015,06,21,13,07,23.80
2015,06,21,13,08,23.70
2015,06,21,13,09,23.70
2015,06,21,13,10,23.60
2015,06,21,13,11,23.70
2015,06,21,13,12,23.70
2015,06,21,13,13,23.60
2015,06,21,13,14,23.50
2015,06,21,13,15,23.40
2015,06,21,13,16,23.40
2015,06,21,13,17,23.40
2015,06,21,13,18,23.40
2015,06,21,13,19,23.40
2015,06,21,13,20,23.50
2015,06,21,13,21,23.50
2015,06,21,13,22,23.60
2015,06,21,13,23,23.70
2015,06,21,13,24,23.80
2015,06,21,13,25,23.90
2015,06,21,13,26,23.90
2015,06,21,13,27,24.00
2015,06,21,13,28,24.00
2015,06,21,13,29,24.10
2015,06,21,13,30,24.10
2015,06,21,13,31,24.20
2015,06,21,13,32,24.30
2015,06,21,13,33,24.40
2015,06,21,13,34,24.40
2015,06,21,13,35,24.40
2015,06,21,13,36,24.40
2015,06,21,13,37,24.40
2015,06,21,13,38,24.40
2015,06,21,13,39,24.40
2015,06,21,13,40,24.30
2015,06,21,13,41,24.30
2015,06,21,13,42,24.30
2015,06,21,13,43,24.40
2015,06,21,13,44,24.40
2015,06,21,13,45,24.40
2015,06,21,13,46,24.40
2015,06,21,13,47,24.40
2015,06,21,13,48,24.40
2015,06,21,13,49,24.40
2015,06,21,13,50,24.40
2015,06,21,13,51,24.50
2015,06,21,13,52,24.60
2015,06,21,13,53,24.70
2015,06,21,13,54,24.80
2015,06,21,13,55,24.80
2015,06,21,13,56,24.80
2015,06,21,13,57,24.80
2015,06,21,13,58,24.90
2015,06,21,13,59,24.80
2015,06,21,14,00,24.70
2015,06,21,14,01,24.70
2015,06,21,14,02,24.80
2015,06,21,14,03,24.90
2015,06,21,14,04,24.90
2015,06,21,14,05,24.90
2015,06,21,14,06,24.90
2015,06,21,14,07,25.00
2015,06,21,14,08,25.00
2015,06,21,14,09,25.10
2015,06,21,14,10,25.20
2015,06,21,14,11,25.30
2015,06,21,14,12,25.20
2015,06,21,14,13,25.30
2015,06,21,14,14,25.30
2015,06,21,14,15,25.30
2015,06,21,14,16,25.30
2015,06,21,14,17,25.30
2015,06,21,14,18,25.30
2015,06,21,14,19,25.30
2015,06,21,14,20,25.30
2015,06,21,14,21,25.30
2015,06,21,14,22,25.30
2015,06,21,14,23,25.30
2015,06,21,14,24,25.20
2015,06,21,14,25,25.20
2015,06,21,14,26,25.20
2015,06,21,14,27,25.10
2015,06,21,14,28,25.20
2015,06,21,14,29,25.20
2015,06,21,14,30,25.20
2015,06,21,14,31,25.20
2015,06,21,14,32,25.30
2015,06,21,14,33,25.30
2015,06,21,14,34,25.20
2015,06,21,14,35,25.10
2015,06,21,14,36,25.10
2015,06,21,14,37,25.10
2015,06,21,14,38,25.10
2015,06,21,14,39,25.20
2015,06,21,14,40,25.20
2015,06,21,14,41,25.20
2015,06,21,14,42,25.30
2015,06,21,14,43,25.30
2015,06,21,14,44,25.20
2015,06,21,14,45,25.30
2015,06,21,14,46,25.30
2015,06,21,14,47,25.30
2015,06,21,14,48,25.20
2015,06,21,14,49,25.20
2015,06,21,14,50,25.10
2015,06,21,14,51,25.00
2015,06,21,14,52,25.00
2015,06,21,14,53,24.90
2015,06,21,14,54,24.80
2015,06,21,14,55,24.70
2015,06,21,14,56,24.60
2015,06,21,14,57,24.60
2015,06,21,14,58,24.60
2015,06,21,14,59,24.60
2015,06,21,15,00,24.60
2015,06,21,15,01,24.50
2015,06,21,15,02,24.50
2015,06,21,15,03,24.50
2015,06,21,15,04,24.60
2015,06,21,15,05,24.70
2015,06,21,15,06,24.80
2015,06,21,15,07,24.90
2015,06,21,15,08,25.00
2015,06,21,15,09,25.00
2015,06,21,15,10,25.10
2015,06,21,15,11,25.10
2015,06,21,15,12,25.00
2015,06,21,15,13,24.80
2015,06,21,15,14,24.70
2015,06,21,15,15,24.60
2015,06,21,15,16,24.50
2015,06,21,15,17,24.60
2015,06,21,15,18,24.60
2015,06,21,15,19,24.70
2015,06,21,15,20,24.70
2015,06,21,15,21,24.80
2015,06,21,15,22,24.80
2015,06,21,15,23,24.90
2015,06,21,15,24,25.00
2015,06,21,15,25,25.10
2015,06,21,15,26,25.10
2015,06,21,15,27,25.20
2015,06,21,15,28,25.20
2015,06,21,15,29,25.20
2015,06,21,15,30,25.20
2015,06,21,15,31,25.30
2015,06,21,15,32,25.40
2015,06,21,15,33,25.40
2015,06,21,15,34,25.40
2015,06,21,15,35,25.30
2015,06,21,15,36,25.30
2015,06,21,15,37,25.30
2015,06,21,15,38,25.30
2015,06,21,15,39,25.30
2015,06,21,15,40,25.40
2015,06,21,15,41,25.50
2015,06,21,15,42,25.50
2015,06,21,15,43,25.50
2015,06,21,15,44,25.40
2015,06,21,15,45,25.40
2015,06,21,15,46,25.50
2015,06,21,15,47,25.50
2015,06,21,15,48,25.40
2015,06,21,15,49,25.30
2015,06,21,15,50,25.20
2015,06,21,15,51,25.20
2015,06,21,15,52,25.20
2015,06,21,15,53,25.20
2015,06,21,15,54,25.10
2015,06,21,15,55,25.00
2015,06,21,15,56,25.00
2015,06,21,15,57,24.90
2015,06,21,15,58,25.10
2015,06,21,15,59,25.20
2015,06,21,16,00,25.30
2015,06,21,16,01,25.30
2015,06,21,16,02,25.30
2015,06,21,16,03,25.40
2015,06,21,16,04,25.40
2015,06,21,16,05,25.40
2015,06,21,16,06,25.40
2015,06,21,16,07,25.30
2015,06,21,16,08,25.30
2015,06,21,16,09,25.30
2015,06,21,16,10,25.30
2015,06,21,16,11,25.40
2015,06,21,16,12,25.50
2015,06,21,16,13,25.50
2015,06,21,16,14,25.60
2015,06,21,16,15,25.70
2015,06,21,16,16,25.70
2015,06,21,16,17,25.70
2015,06,21,16,18,25.70
2015,06,21,16,19,25.60
2015,06,21,16,20,25.60
2015,06,21,16,21,25.60
2015,06,21,16,22,25.60
2015,06,21,16,23,25.60
2015,06,21,16,24,25.60
2015,06,21,16,25,25.60
2015,06,21,16,26,25.60
2015,06,21,16,27,25.60
2015,06,21,16,28,25.50
2015,06,21,16,29,25.50
2015,06,21,16,30,25.60
2015,06,21,16,31,25.60
2015,06,21,16,32,25.60
2015,06,21,16,33,25.60
2015,06,21,16,34,25.60
2015,06,21,16,35,25.60
2015,06,21,16,36,25.60
2015,06,21,16,37,25.60
2015,06,21,16,38,25.60
2015,06,21,16,39,25.60
2015,06,21,16,40,25.50
2015,06,21,16,41,25.40
2015,06,21,16,42,25.40
2015,06,21,16,43,25.40
2015,06,21,16,44,25.30
2015,06,21,16,45,25.30
2015,06,21,16,46,25.30
2015,06,21,16,47,25.30
2015,06,21,16,48,25.20
2015,06,21,16,49,25.30
2015,06,21,16,50,25.30
2015,06,21,16,51,25.30
2015,06,21,16,52,25.40
2015,06,21,16,53,25.40
2015,06,21,16,54,25.30
2015,06,21,16,55,25.30
2015,06,21,16,56,25.30
2015,06,21,16,57,25.20
2015,06,21,16,58,25.20
2015,06,21,16,59,25.20
2015,06,21,17,00,25.10
2015,06,21,17,01,25.10
2015,06,21,17,02,25.10
2015,06,21,17,03,25.10
2015,06,21,17,04,25.10
2015,06,21,17,05,25.20
2015,06,21,17,06,25.30
2015,06,21,17,07,25.30
2015,06,21,17,08,25.40
2015,06,21,17,09,25.40
2015,06,21,17,10,25.50
2015,06,21,17,11,25.60
2015,06,21,17,12,25.60
2015,06,21,17,13,25.60
2015,06,21,17,14,25.70
2015,06,21,17,15,25.70
2015,06,21,17,16,25.70
2015,06,21,17,17,25.70
2015,06,21,17,18,25.60
2015,06,21,17,19,25.60
2015,06,21,17,20,25.60
2015,06,21,17,21,25.60
2015,06,21,17,22,25.70
2015,06,21,17,23,25.70
2015,06,21,17,24,25.70
2015,06,21,17,25,25.80
2015,06,21,17,26,25.80
2015,06,21,17,27,25.80
2015,06,21,17,28,25.70
2015,06,21,17,29,25.70